Vorticity
0 6 5 10 11 4 12 22 16 0 7 7 42 40 -3 -3 10 24 32 -4 -1 23
2 5 4 5 6 12 7 7 20 23 4 3 10 6 9 23 46 15 19 27 15 8
-0 8 4 4 3 8 6 8 6 9 12 10 10 12 12 11 7 10 8 9 10 11
3 9 5 4 3 1 7 9 8 7 5 6 8 8 7 7 9 11 10 10 8 8
6 8 6 5 4 2 2 4 5 6 7 8 7 4 4 6 11 9 9 9 10 9
6 8 7 7 5 3 3 3 2 4 6 6 4 3 6 7 6 3 3 4 4 6
6 7 7 6 7 6 5 5 3 1 2 4 4 6 8 7 8 8 7 5 4 4
6 5 6 5 5 7 8 7 6 5 5 3 5 4 2 3 7 6 6 8 7 7
11 3 2 8 6 7 6 7 5 5 4 3 4 7 4 1 3 4 7 4 3 5
18 31 6 14 2 -0 2 4 7 7 10 13 13 7 7 6 8 6 7 7 9 7
3 8 12 15 12 19 13 6 6 4 2 1 8 7 12 5 7 8 9 15 6 6
0 2 5 8 9 5 1 9 4 3 10 17 15 5 4 -5 -3 -3 -1 4 7 4
2 0 2 2 0 0 3 8 11 13 6 12 7 -3 13 10 13 9 12 14 3 4
9 13 15 13 11 9 8 2 6 10 13 16 13 11 1 -6 5 5 7 -1 -6 11
Height
5699 5699 5698 5697 5698 5698 5697 5697 5695 5696 5696 5695 5694 5698 5699 5700 5704 5705 5709 5713 5716 5717
5696 5696 5695 5695 5695 5695 5695 5694 5694 5693 5692 5693 5693 5694 5696 5697 5698 5702 5704 5707 5710 5712
5690 5691 5691 5691 5691 5692 5691 5692 5692 5693 5693 5693 5693 5694 5694 5694 5693 5695 5699 5702 5705 5706
5684 5686 5687 5687 5687 5688 5688 5688 5689 5690 5691 5692 5692 5692 5691 5691 5693 5694 5697 5699 5699 5699
5678 5681 5682 5682 5683 5683 5684 5685 5686 5687 5687 5687 5687 5688 5690 5691 5692 5693 5693 5694 5695 5694
5671 5673 5675 5677 5678 5679 5680 5681 5682 5682 5683 5683 5684 5684 5685 5685 5686 5686 5687 5688 5689 5688
5663 5665 5667 5670 5673 5675 5676 5676 5676 5677 5677 5678 5679 5679 5680 5680 5680 5680 5680 5681 5681 5682
5657 5659 5662 5663 5664 5667 5669 5669 5670 5671 5672 5673 5675 5674 5673 5673 5673 5674 5673 5674 5675 5675
5650 5652 5654 5656 5657 5658 5659 5661 5662 5664 5665 5666 5667 5667 5666 5666 5665 5664 5665 5667 5667 5667
5642 5644 5646 5648 5650 5650 5651 5653 5654 5656 5656 5657 5657 5657 5656 5655 5655 5656 5658 5659 5660 5660
5634 5636 5638 5640 5642 5643 5644 5644 5645 5646 5647 5648 5649 5647 5647 5648 5647 5647 5647 5648 5648 5647
5626 5628 5629 5631 5633 5635 5636 5637 5637 5638 5637 5638 5637 5639 5639 5638 5636 5635 5636 5637 5637 5635
5616 5618 5620 5621 5622 5622 5623 5623 5623 5623 5625 5625 5625 5626 5627 5625 5624 5624 5624 5622 5621 5623
5608 5608 5609 5610 5611 5612 5612 5612 5612 5611 5611 5611 5611 5612 5611 5609 5608 5609 5610 5610 5607 5606